Other Public Products
Issued by NWS Charleston, SC

Current Version | Previous Version | Text Only | Print | Product List | Glossary Off
Versions: 1 2 3 4 5 6 7 8 9 10 11 12 13 14 15 16 17 18 19 20 21 22 23 24 25 26 27 28 29 30 31 32 33 34 35 36 37 38 39 40 41 42 43 44 45 46 47 48 49 50
603 FPUS82 KCHS 191612 OPUCHS TEST...KCHS/KSAV Gateway Observations...TEST National Weather Service Charleston SC 1100 AM EST MON FEB 19 2018 NOTE: "fair" indicates few or no clouds below 12,000 feet with no significant weather and/or obstructions to visibility. SCZ050-WAZ558-NCZ071-TXZ119-213-PAZ071-DCZ001-FLZ074-172-MI076- NYZ176-178-MAZ016-IL014-TNZ027-NJZ106-GAZ044-MD014-191700- ...Gateway Observations for Charleston International... CITY SKY/WX TMP DP RH WIND PRES REMARKS Chas Airport PTSUNNY 66 59 78 NE5 30.41S Seattle PTCLDY 29 16 58 N13 30.17R WCI 19 Charlotte CLOUDY 51 50 96 E6 30.44S Dallas DFW CLOUDY 73 65 75 S18 29.83S Dallas Love CLOUDY 71 65 81 S22G29 29.85F Philladelphia LGT RAIN 47 37 68 S8 30.49S Wash National CLOUDY 43 39 86 S8 30.48S Baltimore DRIZZLE 41 38 89 S6 30.47S Miami LGT RAIN 74 71 91 SE8 30.28F Detroit LGT RAIN 38 38 100 S7 30.00S VSB 3/4 WCI 33 Newark CLOUDY 46 35 65 S9 30.51R Laguardia PTSUNNY 47 34 60 S12G20 30.50S J F K FAIR 46 37 71 S10 30.53S Boston Logan FAIR 43 31 62 SW17 30.51F Ft. Lauderdale PTSUNNY 78 69 73 E22 30.28R Chicago O`Hare LGT RAIN 41 40 96 CALM 29.84S VSB 1 Chicago Midway LGT RAIN 44 44 100 S6 29.85F FOG Houston Bush PTSUNNY 74 66 76 S15G25 30.03R Houston Hobby PTSUNNY 75 69 81 S16G24 30.02S Nashville PTSUNNY 69 59 70 S24G31 30.19S Atlanta DRZL/FOG 61 61 100 SE6 30.36R VSB 1/4 $$ GAZ044-118-TXZ119-213-NCZ071-DCZ001-MDZ014-506-PAZ021-071-NJZ106- NYZ176-178-MAZ106-OHZ011-021-055-MIZ076-KYZ091-ILZ014-INZ047- MNZ060-ONZ431-191700- ...Gateway Observations for Savannah International... CITY SKY/WX TMP DP RH WIND PRES REMARKS Savannah Arpt CLOUDY 70 62 76 CALM 30.40S Atlanta DRZL/FOG 61 61 100 SE6 30.36R VSB 1/4 Charlotte CLOUDY 51 50 96 E6 30.44S Dallas DFW CLOUDY 73 65 75 S18 29.83S Houston Bush PTSUNNY 74 66 76 S15G25 30.03R Wash National CLOUDY 43 39 86 S8 30.48S Wash Dulles CLOUDY 41 38 89 S9 30.45F Baltimore DRIZZLE 41 38 89 S6 30.47S Philadelphia LGT RAIN 47 37 68 S8 30.49S Newark CLOUDY 46 35 65 S9 30.51R Laguardia PTSUNNY 47 34 60 S12G20 30.50S J F K FAIR 46 37 71 S10 30.53S Boston FAIR 43 31 62 SW17 30.51F Pittsburg RAIN 50 48 93 SW7 30.15R Akron CLOUDY 48 45 89 S13 30.09F Cleveland LGT RAIN 48 45 89 S14 30.08F Cincinnati PTSUNNY 65 59 81 SW20G32 30.05F Columbus CLOUDY 53 53 100 S10 30.08S Detroit LGT RAIN 38 38 100 S7 30.00S VSB 3/4 WCI 33 Chicago O`Hare LGT RAIN 41 40 96 CALM 29.84S VSB 1 Minneapolis FRZ DRZL 20 18 92 N16 29.90F WCI 6 Indianapolis LGT RAIN 61 58 90 SW16 29.97S Toronto Canada NOT AVBL $$

USA.gov is the U.S. government's official web portal to all federal, state and local government web resources and services.